Tracking 32968 objects as of 18-Jan-2026
HD Live streaming from Space Station
objects crossing your sky now

STARLINK-31034

Track STARLINK-31034 now!
10-day predictions
STARLINK-31034 is classified as:


NORAD ID: 58785
Int'l Code: 2024-011W
Perigee: 481.6 km
Apogee: 483.1 km
Inclination: 53.2 °
Period: 94.1 minutes
Semi major axis: 6853 km
RCS: Unknown
Launch date: January 14, 2024
Source: United States (US)
Launch site: AIR FORCE WESTERN TEST RANGE (AFWTR)
Your satellite tracking list
Your tracking list is empty




NASA's NSSDC Master Catalog

Two Line Element Set (TLE):
1 58785U 24011W   26017.50146206 -.00000151  00000-0  70260-5 0  9999
2 58785  53.1613 149.0741 0001080  83.2625 276.8498 15.30199912113891
Source of the keplerian elements: AFSPC